Location: Unspecified
(51.0950°N, 12.9690°E)
Time: 22:50:44
(UTC+00:00)

Cosmos 1190 Rocket - Pass Details

Date: 28 October 2021
Orbit: 756 x 780 km, 74.1° (Epoch: 01 December)

Event Time Altitude Azimuth Distance (km) Brightness Sun altitude
Rises 18:08:32 0° 333° (NNW) 3,229 7.7 -22.4°
Reaches altitude 10° 18:10:55 10° 330° (NNW) 2,301 6.9 -22.7°
Maximum altitude 18:16:03 60° 251° (WSW) 870 4.4 -23.5°
Enters shadow 18:20:02 17° 175° (S) 1,869 5.9 -24.2°
